GFSSW_925_rhum_219.txt.gz
RH
62 62 62 64 63 68 76 79 80 82 82 87 83 80 77 68 60 59 46 42 43 47 42 44 35 34 34 30 28 25 25 24 20 17 15 21 26 23 21 22 26 27 26 36 52
55 56 57 59 60 62 67 73 79 84 85 85 86 83 75 58 55 45 40 41 43 43 49 36 29 29 32 30 29 30 31 25 16 14 14 17 24 24 24 25 26 24 31 47 67
58 54 56 55 58 59 59 62 72 75 77 70 69 70 58 52 45 33 40 48 57 58 50 42 34 30 33 27 30 28 32 23 15 12 16 16 23 22 24 22 19 21 24 47 61
71 59 55 50 51 53 52 54 60 73 73 71 69 58 50 48 50 32 27 41 65 58 49 42 34 37 32 33 27 32 24 22 17 22 20 20 18 22 22 18 18 17 16 34 51
94 65 51 46 44 45 47 49 51 58 72 73 61 60 54 41 36 34 36 31 58 58 51 39 36 34 32 25 26 29 24 18 19 26 22 23 23 20 21 17 18 18 22 29 37
71 56 48 42 40 38 40 41 42 47 50 53 53 48 51 47 33 32 32 31 28 49 45 37 34 29 28 23 27 25 22 20 21 20 21 22 19 24 18 16 19 20 22 26 30
33 38 37 37 35 36 37 36 36 36 45 44 45 55 44 40 35 32 37 32 30 30 36 35 32 33 27 26 21 22 27 22 19 19 19 19 21 24 16 18 18 19 18 20 24
28 31 30 29 29 32 34 36 37 34 38 41 44 52 50 39 40 38 34 30 33 36 35 32 33 35 31 24 26 24 24 32 19 19 19 20 21 13 13 20 19 17 14 18 22
24 30 28 28 30 30 30 36 36 38 36 42 60 53 50 43 39 37 40 31 30 37 40 32 35 38 31 36 31 26 35 33 26 18 18 20 18 12 13 16 14 14 14 14 17
33 24 28 26 30 29 33 37 37 42 47 51 47 50 41 43 44 43 49 38 27 32 35 38 37 41 38 41 60 35 28 28 29 21 21 18 17 12 12 14 13 11 11 12 14
63 26 25 26 29 34 39 42 37 38 36 35 31 36 36 35 37 46 50 38 28 33 43 41 45 50 36 29 28 24 26 24 22 20 19 18 17 13 11 11 12 12 12 10 11
36 25 25 28 26 32 48 32 30 43 33 30 31 32 32 38 39 45 56 38 34 44 38 45 50 32 27 27 30 29 26 25 21 22 22 16 17 13 12 12 11 10 10 10 11
68 26 25 29 33 39 39 29 36 41 37 31 31 31 34 38 51 48 57 41 35 41 43 53 37 31 32 32 32 25 27 24 24 24 20 18 17 14 11 10 11 14 14 15 16
87 37 29 28 43 38 34 41 37 43 43 32 30 27 28 41 57 62 77 56 35 45 38 56 32 32 32 32 28 34 27 21 25 26 32 19 35 19 13 14 12 12 17 15 16
87 46 39 33 45 35 49 51 42 45 74 31 28 27 31 54 75 52 52 55 42 34 36 50 35 35 35 34 35 36 27 24 27 28 32 21 36 19 12 13 14 16 19 20 21
89 46 40 40 46 46 34 39 52 52 69 43 26 30 44 49 65 45 49 41 30 37 36 42 40 37 38 40 37 32 28 31 34 35 87 21 22 23 15 14 15 15 18 21 24
38 46 40 38 33 37 43 40 66 60 23 36 30 28 29 30 37 50 47 44 44 55 46 38 44 42 39 39 36 33 60 100 94 96 40 56 37 20 17 18 18 20 19 20 21
40 38 44 47 45 38 45 26 52 22 22 25 28 30 31 25 28 37 39 51 41 44 38 55 64 46 44 44 46 42 74 96 91 55 42 46 67 31 24 24 19 20 20 21 23
42 62 63 59 41 44 31 66 30 21 21 26 31 42 27 25 31 37 33 42 39 38 45 37 65 48 45 43 45 47 67 36 80 49 47 42 29 21 27 24 21 23 23 26 28
51 47 52 42 40 44 29 45 24 24 27 27 33 27 42 28 41 37 38 29 30 28 27 30 63 46 48 42 38 41 30 57 73 89 78 42 26 63 40 28 23 24 26 30 33
62 42 70 37 42 32 51 35 23 26 28 28 24 21 21 27 25 30 31 33 25 28 25 26 33 53 44 46 44 38 45 39 43 38 70 40 48 67 94 38 27 29 35 37 40
57 53 72 45 38 31 38 25 29 30 37 34 31 22 20 19 23 30 29 30 24 23 26 23 20 46 33 36 36 37 34 24 55 54 44 51 88 26 44 31 30 34 39 42 45
46 40 64 56 51 42 26 28 32 34 33 32 28 25 20 19 24 21 22 27 26 22 19 18 20 30 32 37 37 36 31 25 25 36 76 71 90 33 32 35 33 37 41 45 48
46 52 52 47 41 34 25 24 30 34 30 28 26 25 25 24 19 23 25 36 32 22 40 26 16 17 24 29 30 32 33 27 22 57 34 79 88 35 40 44 37 39 44 48 52
42 39 50 48 36 36 29 29 28 35 36 31 31 26 24 25 25 26 26 41 38 42 34 24 21 18 17 19 26 25 34 31 40 34 61 66 57 28 44 61 41 40 47 52 54
52 51 42 42 34 37 37 29 30 26 33 33 35 23 24 23 21 22 30 33 31 42 36 31 29 28 25 26 27 31 26 28 26 24 23 21 22 16 19 30 39 43 49 55 63
71 67 61 38 35 37 28 30 31 30 28 26 31 26 28 24 19 22 21 24 27 35 34 35 31 32 46 37 36 32 26 26 25 24 23 25 19 20 30 36 44 47 51 63 68

GFSSW_925_rhum_222.txt.gz
RH
86 88 75 64 66 66 66 68 76 83 83 87 85 82 77 72 65 63 57 45 44 46 44 48 40 34 34 38 34 44 42 39 32 29 20 26 28 24 22 28 26 29 38 42 55
92 76 76 69 59 61 63 66 76 84 82 80 81 82 78 66 66 52 44 43 41 42 47 43 34 30 40 40 40 45 48 38 32 21 19 25 26 30 27 28 31 34 41 66 67
74 70 65 64 58 57 59 62 66 76 78 71 66 68 60 53 51 40 39 42 43 42 54 47 36 34 40 37 38 40 47 37 39 21 21 21 23 24 29 33 26 33 52 72 78
40 48 51 51 52 52 53 56 61 70 75 74 69 59 53 58 60 37 30 31 48 65 55 45 41 42 43 42 32 42 35 31 42 25 19 22 19 24 26 24 21 22 43 63 72
38 37 39 40 44 46 45 46 52 57 68 74 70 53 51 48 43 37 34 33 48 64 49 45 44 40 43 33 32 36 34 30 27 26 23 25 26 24 27 22 20 23 34 55 64
36 34 32 34 36 38 41 39 42 48 53 58 55 50 51 56 32 31 31 30 28 46 49 45 42 35 35 33 31 28 31 30 24 27 23 25 23 23 24 21 23 24 27 39 47
40 33 29 29 28 30 35 38 35 40 46 48 48 51 47 47 34 34 34 35 31 28 40 40 36 40 34 39 30 26 35 33 24 23 27 35 26 30 21 19 22 24 25 29 36
87 44 30 26 25 27 33 36 33 36 39 46 42 53 56 39 37 38 33 33 31 32 31 33 33 39 42 36 32 32 32 43 27 24 24 38 29 30 25 22 23 23 23 24 27
84 84 33 27 24 27 28 32 35 35 37 42 56 56 58 40 41 37 43 38 28 32 36 33 33 45 44 54 51 37 50 42 37 22 23 29 25 20 22 23 23 22 20 20 25
96 96 48 31 29 27 28 34 47 38 42 52 49 50 47 43 40 39 45 44 29 35 39 40 45 54 54 61 79 51 42 35 39 26 24 27 26 19 17 18 18 16 15 16 20
98 76 43 30 33 32 35 47 49 52 40 46 39 37 33 33 36 50 48 38 30 38 52 47 60 68 57 44 42 37 35 34 31 24 26 28 24 20 16 17 17 17 15 14 16
100 72 30 28 30 33 39 41 42 46 42 33 35 31 30 34 39 49 52 42 37 51 43 55 67 47 41 39 38 39 39 34 30 22 24 26 25 20 18 17 16 16 17 17 15
100 85 35 29 31 36 43 33 39 40 45 33 33 33 34 38 48 54 61 48 44 45 47 70 55 42 43 39 39 39 41 38 36 28 23 20 24 22 18 15 14 17 19 19 20
100 88 40 34 44 39 38 39 36 38 60 38 34 31 34 40 53 61 70 60 44 46 48 64 53 45 47 41 38 50 31 27 35 43 51 22 62 26 20 19 19 20 22 21 22
100 94 40 37 59 37 51 44 44 48 87 37 33 26 33 51 67 68 54 65 60 43 54 88 80 64 46 38 34 45 31 31 31 38 49 26 64 34 23 20 19 26 28 28 26
100 68 45 39 37 45 35 41 52 78 89 39 32 35 50 55 62 53 59 50 41 40 38 61 57 45 42 41 38 36 34 58 62 67 73 35 44 41 25 20 23 24 28 29 28
46 51 42 47 48 43 38 50 91 83 25 36 36 32 38 40 42 53 61 59 59 66 65 46 46 43 41 46 40 38 79 85 74 76 73 66 53 38 23 24 24 26 27 28 32
47 44 47 50 45 36 52 50 66 38 29 25 29 31 38 30 32 51 48 67 43 48 62 78 74 51 43 48 57 58 84 81 72 88 78 58 59 54 30 24 24 24 27 31 35
49 59 62 59 38 46 52 87 58 29 23 30 32 45 42 28 34 51 47 59 49 49 61 62 80 48 45 41 51 48 59 49 75 55 81 73 45 28 31 30 26 29 34 39 41
59 51 55 53 41 52 55 60 41 22 28 27 48 45 58 40 45 51 51 41 38 31 30 37 73 46 48 43 38 43 34 51 93 63 76 72 41 78 41 34 31 33 41 45 48
77 61 71 40 44 53 73 53 33 26 28 32 30 27 28 36 40 46 43 37 27 33 30 28 48 60 48 59 62 46 63 47 58 64 91 78 74 91 65 44 37 42 46 53 54
62 76 67 42 60 52 57 34 29 29 34 40 35 30 23 24 32 37 43 39 26 30 34 28 27 80 48 38 38 40 46 40 83 50 74 82 80 35 65 40 44 47 52 57 58
66 53 63 58 75 66 45 31 31 34 40 37 37 32 22 22 30 31 30 30 27 26 26 24 30 57 46 46 39 42 42 37 31 58 76 71 76 43 44 41 44 53 56 60 60
66 72 74 60 52 56 47 37 36 37 35 30 29 25 27 28 23 27 27 38 33 26 39 26 23 30 44 41 48 43 42 40 38 76 74 79 86 49 52 52 46 54 60 63 64
64 60 58 72 58 55 47 40 39 38 43 33 34 34 30 31 27 28 29 48 41 47 36 31 31 23 21 26 30 30 41 43 45 48 52 58 60 46 59 64 55 56 61 61 62
77 77 63 58 44 43 44 40 40 36 40 42 44 32 32 31 28 27 32 45 44 55 45 36 42 29 28 26 25 34 34 38 35 33 36 35 35 23 39 54 51 53 58 60 65
75 71 77 63 50 46 43 39 40 38 36 31 37 38 36 30 26 25 29 28 36 50 48 49 47 43 67 40 40 50 42 35 36 31 28 34 27 29 42 51 52 57 57 68 72

GFSSW_925_rhum_228.txt.gz
RH
65 69 62 60 63 62 58 57 61 72 84 83 80 78 79 76 64 53 67 48 55 60 50 43 44 46 42 45 43 48 58 60 55 61 57 28 34 29 30 36 40 42 72 64 57
62 54 55 54 54 52 51 53 56 61 74 78 73 68 63 57 54 63 41 44 50 60 50 45 54 54 52 48 47 55 66 56 46 64 45 26 35 32 35 40 50 75 72 63 61
70 64 49 47 48 47 45 45 48 52 60 74 75 72 57 54 63 51 43 47 49 52 48 42 50 56 50 47 48 52 64 48 45 58 50 26 32 31 42 39 47 75 82 71 66
65 64 53 44 44 42 40 39 40 44 50 66 73 74 52 53 63 40 30 34 39 59 55 46 54 55 53 56 46 53 48 44 41 54 44 27 28 30 36 36 33 73 72 74 72
84 78 51 40 38 39 37 36 36 38 40 50 66 60 44 56 58 38 32 33 32 63 59 58 60 58 59 50 46 50 44 41 42 46 59 28 27 29 30 25 35 76 76 77 74
95 65 46 33 34 35 32 32 35 37 38 40 49 49 56 67 37 33 32 34 32 43 55 58 60 53 57 54 48 42 38 40 39 37 55 31 26 27 24 30 63 83 87 84 79
94 80 59 34 32 31 30 33 34 36 39 41 47 51 61 56 33 35 39 36 36 33 32 33 43 51 50 57 48 46 44 41 40 38 39 34 36 32 27 31 61 90 89 92 90
97 96 65 36 30 28 27 32 32 34 37 42 51 62 68 38 44 40 38 35 34 35 33 30 34 42 48 47 52 47 42 50 38 38 34 37 48 35 27 32 38 55 80 88 89
100 100 97 49 28 28 26 30 34 41 38 44 56 63 75 49 44 41 39 42 43 32 33 33 35 48 50 62 71 56 63 55 45 35 35 38 40 31 32 34 35 36 46 62 73
99 98 100 80 30 28 28 32 42 43 46 59 62 67 56 50 43 40 42 44 43 40 43 43 52 66 72 80 91 68 60 51 51 39 33 42 36 28 50 38 38 51 37 38 46
98 100 100 98 34 32 32 50 55 59 62 58 57 58 43 40 38 54 47 42 38 45 58 51 68 84 74 70 63 63 62 63 47 37 32 38 36 32 26 47 53 35 36 35 35
99 98 100 100 41 36 40 64 45 39 53 46 52 55 42 34 45 57 55 46 45 62 54 64 80 62 60 62 67 68 68 65 50 40 37 37 38 31 27 27 29 32 32 28 27
97 98 100 100 57 42 39 36 42 40 48 45 46 51 47 38 46 56 66 56 51 54 61 74 58 55 61 64 69 70 72 62 53 44 30 30 37 33 28 26 25 25 24 22 24
100 99 98 79 58 44 48 43 34 40 71 53 41 41 42 46 54 61 68 61 56 60 58 67 60 67 60 68 63 76 56 52 53 52 63 32 63 36 29 29 24 27 27 27 30
100 100 99 96 88 55 51 45 45 47 66 35 42 31 43 53 60 67 59 64 70 59 63 68 74 75 82 67 55 67 54 48 40 52 52 38 67 43 32 33 27 28 31 30 28
96 100 100 82 71 46 44 43 49 77 68 48 40 43 53 62 67 66 66 56 57 56 59 68 73 71 63 48 45 40 49 58 76 67 79 49 50 47 39 30 29 35 39 38 38
52 81 89 74 54 43 41 52 76 82 30 42 48 53 57 68 75 75 83 83 76 74 73 61 73 62 46 51 42 53 62 85 91 92 77 60 64 36 28 27 29 34 44 45 45
50 50 59 56 51 49 50 57 59 36 56 35 41 51 58 63 71 78 78 88 77 60 81 82 77 59 50 50 53 60 66 86 90 98 82 58 65 52 29 37 41 43 52 55 57
40 50 61 47 49 49 64 82 43 42 34 38 35 48 52 45 51 63 81 83 77 66 74 80 72 50 48 45 49 54 81 56 78 83 88 76 46 40 31 36 46 55 58 65 68
47 66 70 62 52 56 69 61 49 45 29 34 32 46 58 50 49 68 74 63 61 64 54 62 72 54 48 45 42 51 46 63 88 78 74 76 55 67 48 41 48 58 66 72 75
71 89 72 62 52 68 80 64 48 40 27 35 40 40 49 51 46 69 62 53 55 63 53 56 61 63 49 60 63 56 64 55 67 77 74 82 79 68 54 42 45 56 66 72 78
81 69 69 56 64 75 65 58 37 31 33 35 37 42 42 45 50 59 64 53 48 47 60 57 65 87 63 46 46 47 48 53 77 62 85 83 72 52 58 53 53 63 68 77 79
93 77 66 56 75 64 62 58 39 35 40 38 43 44 36 32 40 52 48 40 45 41 47 41 53 71 50 48 43 51 54 46 60 67 73 71 67 51 57 57 56 70 74 79 83
99 82 85 76 72 70 67 65 63 43 45 43 42 40 38 39 34 33 38 34 34 36 40 29 46 52 59 50 52 54 55 51 46 78 70 72 60 55 62 75 72 73 78 80 81
96 86 68 84 77 74 96 80 66 60 48 39 41 41 39 41 34 33 32 43 40 39 36 29 39 36 38 36 39 42 45 53 54 40 58 50 61 44 62 71 69 74 79 81 82
99 99 91 96 77 69 63 84 72 58 53 55 52 46 41 43 31 30 28 47 41 53 44 41 38 34 34 31 44 37 40 48 46 39 50 45 58 44 49 64 74 75 78 80 81
70 82 95 76 84 82 78 64 61 51 53 54 59 58 54 47 40 37 34 32 34 48 48 50 44 46 55 37 40 44 37 48 49 47 38 47 30 41 62 57 68 77 74 79 81

GFSSW_925_rhum_234.txt.gz
RH
91 94 86 90 70 62 57 59 59 57 61 73 71 68 69 58 50 49 61 47 54 56 69 55 44 49 45 49 49 54 68 75 56 50 57 69 34 33 37 54 47 57 72 66 87
95 94 84 88 56 58 54 53 56 54 54 62 72 70 70 58 50 60 45 46 59 67 67 52 52 55 57 52 54 64 79 68 50 46 53 65 44 38 40 47 51 69 79 92 98
96 96 94 95 64 46 45 46 47 48 49 51 67 71 69 49 55 44 34 48 51 45 68 61 51 58 54 50 52 60 76 57 48 48 55 59 51 34 42 48 47 68 94 96 91
96 98 97 95 74 43 40 38 39 43 48 47 52 65 52 52 57 39 34 35 34 55 67 54 56 61 60 56 51 61 56 54 52 48 51 56 49 41 40 43 35 49 80 94 89
99 97 99 97 95 48 38 36 35 38 45 45 47 52 44 51 50 38 36 35 40 56 58 58 63 64 64 61 54 56 52 47 44 46 43 52 59 49 43 36 41 74 78 88 92
99 98 100 100 98 95 50 34 33 38 42 45 48 53 54 54 34 37 36 38 37 39 58 62 62 59 66 59 58 54 54 53 45 42 42 47 46 34 39 33 65 87 81 80 86
97 96 99 100 100 96 74 37 32 37 38 43 51 60 62 50 33 37 37 38 40 37 35 41 46 52 56 61 51 54 60 50 42 40 41 48 52 50 39 31 60 91 89 83 80
100 100 98 100 98 100 80 37 32 37 43 46 56 64 60 39 41 44 44 40 40 37 38 35 34 42 51 50 57 57 53 62 44 44 41 44 58 45 47 34 38 87 94 93 90
100 100 100 99 100 100 72 32 33 42 55 56 67 59 66 47 51 45 44 42 44 37 36 35 40 52 53 71 79 72 79 62 54 43 40 51 54 42 42 42 36 55 93 95 94
99 99 100 98 100 100 50 36 46 63 64 68 70 67 51 47 47 44 46 45 42 43 46 47 66 74 81 84 93 80 71 64 60 46 44 52 62 47 35 48 51 35 57 92 94
96 96 98 100 99 100 64 52 53 58 71 54 52 55 48 45 45 47 46 44 42 47 58 58 75 87 79 78 70 62 69 76 67 56 54 54 51 47 40 54 59 39 38 47 75
96 100 99 98 99 100 82 62 36 42 59 56 61 60 51 40 46 58 50 46 48 60 59 68 83 67 64 70 75 78 83 85 71 59 59 55 55 46 39 40 36 47 40 40 42
97 100 98 100 99 95 68 37 46 44 51 48 56 63 58 50 56 52 58 50 52 62 70 74 56 60 67 74 81 80 86 80 77 62 58 53 56 40 33 36 32 35 44 42 39
95 100 98 99 79 66 53 46 38 40 62 45 50 48 48 55 60 57 62 55 64 65 63 72 60 61 70 71 73 86 71 71 74 73 92 44 75 49 39 37 34 34 33 33 39
56 100 99 100 88 74 56 52 42 40 49 31 48 41 50 52 64 69 70 66 75 68 64 69 75 81 78 73 70 76 66 75 70 77 67 66 76 58 42 42 37 37 35 32 29
46 72 100 89 85 58 54 53 49 61 44 55 43 52 64 67 71 78 73 61 62 75 71 75 71 74 76 66 68 51 58 62 78 75 94 68 70 71 48 40 36 34 35 31 31
41 46 90 81 52 51 51 51 72 61 29 47 54 57 58 68 79 84 88 92 91 94 85 68 87 77 62 61 52 55 71 96 98 97 88 72 78 49 43 40 33 31 31 33 35
39 45 56 70 61 57 49 57 48 27 40 38 48 59 63 65 71 89 94 97 87 72 84 91 81 86 67 68 70 74 77 92 91 95 89 72 78 55 42 38 38 42 41 42 52
42 61 70 58 63 60 60 87 46 35 27 46 48 57 59 56 59 89 94 96 85 74 84 91 83 62 58 50 56 68 80 64 86 91 96 86 65 47 46 39 43 51 52 54 64
56 85 75 72 63 57 66 55 52 35 34 37 48 50 57 54 70 86 82 68 76 76 57 62 77 61 54 48 48 66 61 86 98 96 99 84 76 71 50 47 42 57 64 67 77
79 84 75 73 63 68 80 70 47 39 41 45 44 38 45 50 61 78 57 50 67 80 61 67 70 67 54 69 74 63 71 63 77 86 92 90 78 69 64 56 49 55 66 79 89
83 79 72 68 78 83 77 65 45 41 33 53 40 41 40 42 55 64 67 46 60 71 84 71 73 88 73 55 56 61 64 60 85 82 91 90 68 50 54 56 53 66 81 88 94
91 94 76 65 95 92 72 64 50 43 41 44 46 42 39 44 53 56 51 45 59 70 79 67 76 89 70 53 49 62 60 56 63 73 81 79 74 58 54 55 53 76 87 91 93
95 97 85 88 86 79 72 73 71 56 59 51 50 46 52 55 46 48 44 35 50 60 51 60 75 74 66 58 62 66 62 54 53 81 65 68 59 47 50 56 71 77 85 94 92
94 91 85 95 84 86 80 78 82 83 66 68 77 62 65 77 54 48 40 39 39 42 49 60 75 67 59 53 51 53 55 59 62 54 65 55 63 47 46 63 72 75 90 94 92
86 92 77 83 68 78 79 75 85 78 79 84 99 82 92 99 94 86 80 58 49 43 47 44 61 49 55 50 55 54 51 54 52 48 50 50 51 41 42 61 78 79 85 89 90
80 82 96 85 88 78 86 86 91 85 74 86 89 93 89 90 89 96 97 90 79 71 55 48 53 48 63 47 42 52 46 42 48 54 44 55 40 44 64 67 71 77 79 79 84

GFSSW_925_rhum_237.txt.gz
RH
95 96 95 84 64 62 57 51 47 48 48 54 70 72 70 67 49 49 55 45 54 61 76 55 42 49 48 50 53 56 65 68 59 52 65 69 48 32 38 51 56 62 63 68 92
96 96 96 95 82 48 48 48 43 41 43 45 60 69 69 60 49 53 41 48 62 70 73 53 52 56 56 54 56 64 74 69 52 51 54 60 54 36 39 46 51 65 86 97 100
95 96 97 97 92 57 43 41 40 38 40 41 45 60 64 48 52 43 36 48 52 42 65 64 54 59 56 52 53 65 72 60 51 54 56 55 51 42 40 44 46 55 88 89 92
97 96 96 97 96 92 59 42 37 34 39 42 43 45 46 48 52 40 36 37 38 53 64 56 56 62 61 56 54 63 56 54 52 50 48 53 57 53 42 42 34 38 80 84 85
95 99 99 100 97 96 90 50 37 35 40 42 43 45 44 49 48 38 37 35 37 48 57 60 65 65 66 65 56 57 53 50 47 46 43 44 51 54 50 43 36 54 87 86 83
100 97 94 99 96 99 95 92 41 36 41 42 46 51 54 56 32 38 36 38 39 38 52 62 63 61 67 61 59 55 55 54 47 46 44 44 42 44 41 38 47 80 86 90 83
99 99 99 98 99 99 99 95 60 36 40 42 50 61 62 50 34 38 37 38 41 39 36 40 51 55 58 63 53 56 61 54 47 40 41 43 48 53 40 38 43 71 83 81 89
99 97 100 100 99 100 100 99 40 35 42 54 60 68 58 39 40 37 42 42 41 38 39 36 35 43 52 52 59 61 58 64 46 45 42 41 44 43 42 42 42 54 81 85 82
96 95 94 100 100 99 100 94 44 41 61 63 72 59 61 47 51 42 48 42 44 38 38 38 41 55 57 73 79 72 76 67 54 43 42 53 41 42 38 49 46 46 61 82 85
98 99 99 100 100 98 100 49 54 75 74 79 72 64 47 48 49 47 47 46 42 45 47 50 68 74 78 81 86 80 77 69 63 48 52 54 58 46 39 44 48 45 43 73 86
97 95 98 100 100 99 88 60 56 59 78 54 52 51 49 46 46 47 47 43 43 47 58 61 71 83 76 77 71 65 69 72 68 60 63 64 62 48 40 44 46 48 42 43 63
91 96 99 99 97 97 97 68 33 42 58 56 62 60 51 44 52 59 47 49 50 62 61 67 79 63 65 72 78 80 85 86 72 65 64 61 59 50 43 40 41 38 43 38 39
65 100 99 99 97 94 95 44 49 45 46 44 62 67 57 49 55 53 53 50 53 65 71 73 56 63 67 75 81 82 87 84 79 68 64 64 51 47 38 39 39 37 36 38 35
50 64 98 95 73 75 65 49 48 39 58 40 52 50 55 56 62 50 56 50 59 65 68 74 61 62 70 72 76 85 72 73 76 77 86 54 68 53 44 39 38 34 34 36 39
51 47 98 97 90 81 60 55 45 38 52 34 55 44 53 53 69 72 72 66 76 71 66 68 72 78 77 72 70 73 65 75 76 83 79 71 84 60 48 44 38 34 34 33 32
37 40 65 82 82 65 58 57 49 62 42 55 48 60 66 68 75 80 77 62 65 76 75 74 67 74 74 68 68 59 64 67 77 78 98 66 72 62 46 38 39 33 33 32 30
20 33 54 73 55 58 53 51 73 61 24 43 56 60 62 74 82 87 90 95 90 92 92 72 84 79 64 66 59 59 75 94 94 98 84 77 82 54 41 42 36 33 34 35 35
13 38 58 56 63 60 49 53 58 30 33 42 52 60 64 66 70 91 97 98 90 75 84 91 77 90 77 70 75 80 83 90 92 94 84 72 85 62 45 37 32 38 35 40 38
13 54 72 60 61 65 52 87 51 37 26 46 51 59 58 58 57 92 96 94 85 76 84 92 84 73 66 57 59 72 90 68 91 93 96 79 65 52 48 45 42 40 44 42 44
38 85 81 76 71 59 67 57 51 37 50 56 54 52 58 56 73 94 92 75 77 76 60 64 79 62 58 49 50 66 64 88 99 96 95 80 75 72 53 40 40 44 50 52 61
70 78 73 79 78 68 87 75 50 40 44 58 53 44 44 46 65 84 64 53 69 83 63 65 71 70 58 70 74 62 74 68 80 88 93 92 77 68 68 53 49 47 52 58 78
60 36 73 75 83 89 91 69 51 41 46 57 55 53 47 40 56 69 68 48 61 74 85 70 76 89 74 57 60 64 64 66 90 88 96 89 76 45 58 55 56 54 66 81 89
84 86 75 72 96 88 80 68 56 52 51 49 54 48 43 47 58 57 54 45 60 71 79 70 83 85 70 55 51 66 64 56 65 74 86 85 77 55 52 50 54 57 82 90 95
92 87 84 86 84 86 78 82 74 61 62 54 56 52 57 62 56 64 52 39 53 69 62 65 80 82 70 60 64 69 64 59 57 80 69 72 64 50 49 55 57 67 82 91 94
91 89 83 96 69 76 83 77 69 78 66 68 65 64 73 82 73 72 60 50 42 47 63 69 79 78 72 68 56 55 58 62 68 63 74 61 68 50 48 52 49 61 83 93 95
94 88 78 74 69 72 71 69 78 92 93 83 86 91 95 100 96 94 92 74 60 67 56 51 78 70 75 62 62 65 59 57 55 55 56 53 54 42 45 45 61 68 86 89 92
83 87 94 79 85 72 72 82 86 78 70 93 88 88 89 92 84 78 86 97 100 99 91 88 61 58 70 54 53 63 49 51 51 51 47 59 46 37 45 52 46 67 80 80 85